Time,TemperatureF,DewpointF,PressureIn,WindDirection,WindDirectionDegrees,WindSpeedMPH,WindSpeedGustMPH,Humidity,HourlyPrecipIn,Conditions,Clouds,dailyrainin,SoftwareType,DateUTC
2013-05-12 00:01:00,51.0,30.0,29.99,NE,46,3.0,-999.0,45,-99.99,,,-99.99,,2013-05-12 06:01:00,
2013-05-12 00:11:00,51.0,30.0,29.99,NE,46,3.0,-999.0,45,-99.99,,,-99.99,,2013-05-12 06:11:00,
2013-05-12 00:21:00,50.0,30.0,29.99,North,8,3.0,-999.0,46,-99.99,,,-99.99,,2013-05-12 06:21:00,
2013-05-12 00:31:00,49.0,30.0,30.00,NNE,17,2.0,-999.0,47,-99.99,,,-99.99,,2013-05-12 06:31:00,
2013-05-12 00:41:00,49.0,30.0,30.00,NNE,17,2.0,-999.0,47,-99.99,,,-99.99,,2013-05-12 06:41:00,
2013-05-12 01:01:00,48.0,30.0,30.01,NNE,17,1.0,-999.0,50,-99.99,,,-99.99,,2013-05-12 07:01:00,
2013-05-12 01:32:00,45.0,30.0,30.04,NNE,16,1.0,-999.0,55,-99.99,,,-99.99,,2013-05-12 07:32:00,
2013-05-12 02:02:00,45.0,29.0,30.01,NE,35,2.0,-999.0,54,-99.99,,,-99.99,,2013-05-12 08:02:00,
2013-05-12 02:31:00,45.0,29.0,30.02,NE,46,3.0,-999.0,54,-99.99,,,-99.99,,2013-05-12 08:31:00,
2013-05-12 03:01:00,44.0,30.0,30.01,NE,46,2.0,-999.0,57,-99.99,,,-99.99,,2013-05-12 09:01:00,
2013-05-12 03:21:00,43.0,29.0,30.01,NNE,27,2.0,-999.0,58,-99.99,,,-99.99,,2013-05-12 09:21:00,
2013-05-12 03:32:00,42.0,29.0,30.03,NNE,26,1.0,-999.0,60,-99.99,,,-99.99,,2013-05-12 09:32:00,
2013-05-12 04:02:00,42.0,30.0,30.03,NE,49,2.0,-999.0,62,-99.99,,,-99.99,,2013-05-12 10:02:00,
2013-05-12 04:12:00,42.0,30.0,30.03,NE,49,2.0,-999.0,62,-99.99,,,-99.99,,2013-05-12 10:12:00,
2013-05-12 04:22:00,41.0,29.0,30.02,NNE,15,3.0,-999.0,63,-99.99,,,-99.99,,2013-05-12 10:22:00,
2013-05-12 04:32:00,41.0,30.0,30.04,NNE,15,2.0,-999.0,64,-99.99,,,-99.99,,2013-05-12 10:32:00,
2013-05-12 04:42:00,41.0,30.0,30.04,NNE,15,2.0,-999.0,64,-99.99,,,-99.99,,2013-05-12 10:42:00,
2013-05-12 04:52:00,41.0,29.0,30.03,NNE,17,3.0,-999.0,63,-99.99,,,-99.99,,2013-05-12 10:52:00,
2013-05-12 05:02:00,40.0,29.0,30.02,NNE,18,2.0,-999.0,64,-99.99,,,-99.99,,2013-05-12 11:02:00,
2013-05-12 05:11:00,40.0,29.0,30.02,NNE,18,2.0,-999.0,64,-99.99,,,-99.99,,2013-05-12 11:11:00,
2013-05-12 05:21:00,40.0,29.0,30.02,NNE,18,2.0,-999.0,64,-99.99,,,-99.99,,2013-05-12 11:21:00,
2013-05-12 05:31:00,40.0,29.0,30.03,NNE,18,3.0,-999.0,64,-99.99,,,-99.99,,2013-05-12 11:31:00,
2013-05-12 05:42:00,40.0,29.0,30.03,NNE,18,3.0,-999.0,64,-99.99,,,-99.99,,2013-05-12 11:42:00,
2013-05-12 05:51:00,40.0,29.0,30.03,NE,37,3.0,-999.0,65,-99.99,,,-99.99,,2013-05-12 11:51:00,
2013-05-12 06:01:00,39.0,29.0,30.04,NNE,23,2.0,-999.0,66,-99.99,,,-99.99,,2013-05-12 12:01:00,
2013-05-12 06:11:00,39.0,29.0,30.04,NNE,23,2.0,-999.0,66,-99.99,,,-99.99,,2013-05-12 12:11:00,
2013-05-12 06:21:00,39.0,29.0,30.04,NNE,23,2.0,-999.0,66,-99.99,,,-99.99,,2013-05-12 12:21:00,
2013-05-12 06:32:00,39.0,29.0,30.05,NNE,20,2.0,-999.0,67,-99.99,,,-99.99,,2013-05-12 12:32:00,
2013-05-12 06:41:00,39.0,29.0,30.05,NNE,20,2.0,-999.0,67,-99.99,,,-99.99,,2013-05-12 12:41:00,
2013-05-12 06:52:00,39.0,29.0,30.05,NNE,20,2.0,-999.0,67,-99.99,,,-99.99,,2013-05-12 12:52:00,
2013-05-12 07:01:00,41.0,31.0,30.08,NNE,16,2.0,-999.0,66,-99.99,,,-99.99,,2013-05-12 13:01:00,
2013-05-12 07:11:00,41.0,31.0,30.08,NNE,16,2.0,-999.0,66,-99.99,,,-99.99,,2013-05-12 13:11:00,
2013-05-12 07:21:00,43.0,31.0,30.06,NE,49,3.0,-999.0,62,-99.99,,,-99.99,,2013-05-12 13:21:00,
2013-05-12 07:31:00,45.0,31.0,30.05,NE,34,2.0,-999.0,58,-99.99,,,-99.99,,2013-05-12 13:31:00,
2013-05-12 07:41:00,45.0,31.0,30.05,NE,34,2.0,-999.0,58,-99.99,,,-99.99,,2013-05-12 13:41:00,
2013-05-12 07:52:00,47.0,33.0,30.05,ENE,60,3.0,-999.0,57,-99.99,,,-99.99,,2013-05-12 13:52:00,
2013-05-12 08:01:00,50.0,34.0,30.06,ENE,68,3.0,-999.0,55,-99.99,,,-99.99,,2013-05-12 14:01:00,
2013-05-12 08:11:00,50.0,34.0,30.06,ENE,68,3.0,-999.0,55,-99.99,,,-99.99,,2013-05-12 14:11:00,
2013-05-12 08:21:00,51.0,35.0,30.05,NE,46,1.0,-999.0,54,-99.99,,,-99.99,,2013-05-12 14:21:00,
2013-05-12 08:31:00,54.0,34.0,30.04,ENE,72,3.0,-999.0,47,-99.99,,,-99.99,,2013-05-12 14:31:00,
2013-05-12 08:42:00,57.0,34.0,30.01,North,11,3.0,-999.0,42,-99.99,,,-99.99,,2013-05-12 14:42:00,
2013-05-12 08:51:00,57.0,34.0,30.01,North,11,3.0,-999.0,42,-99.99,,,-99.99,,2013-05-12 14:51:00,
2013-05-12 09:01:00,61.0,32.0,30.03,ENE,78,2.0,-999.0,34,-99.99,,,-99.99,,2013-05-12 15:01:00,
2013-05-12 09:11:00,61.0,32.0,30.03,ENE,78,2.0,-999.0,34,-99.99,,,-99.99,,2013-05-12 15:11:00,
2013-05-12 09:21:00,62.0,32.0,30.02,East,83,5.0,-999.0,32,-99.99,,,-99.99,,2013-05-12 15:21:00,
2013-05-12 09:33:00,62.0,32.0,30.03,East,96,5.0,-999.0,32,-99.99,,,-99.99,,2013-05-12 15:33:00,
2013-05-12 09:42:00,62.0,32.0,30.03,East,96,5.0,-999.0,32,-99.99,,,-99.99,,2013-05-12 15:42:00,
2013-05-12 09:52:00,62.0,32.0,30.02,East,101,6.0,-999.0,32,-99.99,,,-99.99,,2013-05-12 15:52:00,
2013-05-12 10:02:00,64.0,32.0,30.02,ENE,74,5.0,-999.0,30,-99.99,,,-99.99,,2013-05-12 16:02:00,
2013-05-12 10:12:00,64.0,32.0,30.02,ENE,74,5.0,-999.0,30,-99.99,,,-99.99,,2013-05-12 16:12:00,
2013-05-12 10:23:00,64.0,32.0,30.01,ENE,74,5.0,-999.0,30,-99.99,,,-99.99,,2013-05-12 16:23:00,
2013-05-12 10:32:00,65.0,31.0,30.00,East,84,5.0,-999.0,28,-99.99,,,-99.99,,2013-05-12 16:32:00,
2013-05-12 10:42:00,65.0,31.0,30.00,East,84,5.0,-999.0,28,-99.99,,,-99.99,,2013-05-12 16:42:00,
2013-05-12 10:52:00,66.0,31.0,29.98,ESE,113,4.0,-999.0,27,-99.99,,,-99.99,,2013-05-12 16:52:00,
2013-05-12 11:01:00,67.0,32.0,30.00,SSE,162,2.0,-999.0,27,-99.99,,,-99.99,,2013-05-12 17:01:00,
2013-05-12 11:11:00,67.0,32.0,30.00,SSE,162,2.0,-999.0,27,-99.99,,,-99.99,,2013-05-12 17:11:00,
2013-05-12 11:22:00,67.0,31.0,30.00,NNE,13,2.0,-999.0,26,-99.99,,,-99.99,,2013-05-12 17:22:00,
2013-05-12 11:32:00,68.0,33.0,29.99,SW,232,1.0,-999.0,27,-99.99,,,-99.99,,2013-05-12 17:32:00,
2013-05-12 11:42:00,68.0,33.0,29.99,SW,232,1.0,-999.0,27,-99.99,,,-99.99,,2013-05-12 17:42:00,
2013-05-12 11:52:00,68.0,32.0,29.99,WSW,253,3.0,-999.0,26,-99.99,,,-99.99,,2013-05-12 17:52:00,
2013-05-12 12:01:00,69.0,32.0,29.98,SW,222,1.0,-999.0,25,-99.99,,,-99.99,,2013-05-12 18:01:00,
2013-05-12 12:12:00,69.0,32.0,29.98,SW,222,1.0,-999.0,25,-99.99,,,-99.99,,2013-05-12 18:12:00,
2013-05-12 12:22:00,70.0,30.0,29.97,East,99,3.0,-999.0,23,-99.99,,,-99.99,,2013-05-12 18:22:00,
2013-05-12 12:31:00,71.0,31.0,29.96,NNE,18,3.0,-999.0,23,-99.99,,,-99.99,,2013-05-12 18:31:00,
2013-05-12 12:41:00,71.0,31.0,29.96,NNE,18,3.0,-999.0,23,-99.99,,,-99.99,,2013-05-12 18:41:00,
2013-05-12 12:51:00,72.0,32.0,29.96,South,181,1.0,-999.0,23,-99.99,,,-99.99,,2013-05-12 18:51:00,
2013-05-12 13:01:00,72.0,32.0,29.96,SE,142,4.0,-999.0,23,-99.99,,,-99.99,,2013-05-12 19:01:00,
2013-05-12 13:11:00,72.0,32.0,29.96,SE,142,4.0,-999.0,23,-99.99,,,-99.99,,2013-05-12 19:11:00,
2013-05-12 13:21:00,73.0,32.0,29.95,WSW,242,3.0,-999.0,22,-99.99,,,-99.99,,2013-05-12 19:21:00,
2013-05-12 13:32:00,74.0,33.0,29.95,SW,229,2.0,-999.0,22,-99.99,,,-99.99,,2013-05-12 19:32:00,
2013-05-12 13:41:00,74.0,33.0,29.95,SW,229,2.0,-999.0,22,-99.99,,,-99.99,,2013-05-12 19:41:00,
2013-05-12 13:52:00,74.0,32.0,29.93,SSW,210,2.0,-999.0,21,-99.99,,,-99.99,,2013-05-12 19:52:00,
2013-05-12 14:02:00,74.0,30.0,29.92,SW,236,7.0,-999.0,20,-99.99,,,-99.99,,2013-05-12 20:02:00,
2013-05-12 14:11:00,74.0,30.0,29.92,SW,236,7.0,-999.0,20,-99.99,,,-99.99,,2013-05-12 20:11:00,
2013-05-12 14:21:00,75.0,31.0,29.91,WSW,245,3.0,-999.0,20,-99.99,,,-99.99,,2013-05-12 20:21:00,
2013-05-12 14:32:00,76.0,29.0,29.89,WSW,247,5.0,-999.0,18,-99.99,,,-99.99,,2013-05-12 20:32:00,
2013-05-12 14:41:00,76.0,29.0,29.89,WSW,247,5.0,-999.0,18,-99.99,,,-99.99,,2013-05-12 20:41:00,
2013-05-12 14:51:00,74.0,28.0,29.89,WSW,254,8.0,-999.0,18,-99.99,,,-99.99,,2013-05-12 20:51:00,
2013-05-12 15:01:00,76.0,29.0,29.90,North,354,7.0,-999.0,18,-99.99,,,-99.99,,2013-05-12 21:01:00,
2013-05-12 15:11:00,76.0,29.0,29.90,North,354,7.0,-999.0,18,-99.99,,,-99.99,,2013-05-12 21:11:00,
2013-05-12 15:21:00,76.0,29.0,29.88,NW,307,8.0,-999.0,18,-99.99,,,-99.99,,2013-05-12 21:21:00,
2013-05-12 15:33:00,77.0,29.0,29.88,WNW,300,3.0,-999.0,17,-99.99,,,-99.99,,2013-05-12 21:33:00,
2013-05-12 15:42:00,77.0,29.0,29.88,WNW,300,3.0,-999.0,17,-99.99,,,-99.99,,2013-05-12 21:42:00,
2013-05-12 15:52:00,76.0,29.0,29.88,West,264,4.0,-999.0,18,-99.99,,,-99.99,,2013-05-12 21:52:00,
2013-05-12 16:02:00,77.0,29.0,29.89,West,281,8.0,-999.0,17,-99.99,,,-99.99,,2013-05-12 22:02:00,
2013-05-12 16:12:00,77.0,29.0,29.89,West,281,8.0,-999.0,17,-99.99,,,-99.99,,2013-05-12 22:12:00,
2013-05-12 16:22:00,77.0,29.0,29.88,North,356,6.0,-999.0,17,-99.99,,,-99.99,,2013-05-12 22:22:00,
2013-05-12 16:32:00,78.0,28.0,29.87,West,278,6.0,-999.0,16,-99.99,,,-99.99,,2013-05-12 22:32:00,
2013-05-12 16:42:00,78.0,28.0,29.87,West,278,6.0,-999.0,16,-99.99,,,-99.99,,2013-05-12 22:42:00,
2013-05-12 16:52:00,78.0,28.0,29.86,West,270,7.0,-999.0,16,-99.99,,,-99.99,,2013-05-12 22:52:00,
2013-05-12 17:02:00,77.0,30.0,29.86,WNW,291,4.0,-999.0,18,-99.99,,,-99.99,,2013-05-12 23:02:00,
2013-05-12 17:11:00,77.0,30.0,29.86,WNW,291,4.0,-999.0,18,-99.99,,,-99.99,,2013-05-12 23:11:00,
2013-05-12 17:22:00,77.0,29.0,29.86,West,259,4.0,-999.0,17,-99.99,,,-99.99,,2013-05-12 23:22:00,
2013-05-12 17:32:00,78.0,28.0,29.85,West,278,4.0,-999.0,16,-99.99,,,-99.99,,2013-05-12 23:32:00,
2013-05-12 17:42:00,78.0,28.0,29.85,West,278,4.0,-999.0,16,-99.99,,,-99.99,,2013-05-12 23:42:00,
2013-05-12 17:51:00,76.0,28.0,29.85,West,263,6.0,-999.0,17,-99.99,,,-99.99,,2013-05-12 23:51:00,
2013-05-12 18:01:00,75.0,29.0,29.86,SW,225,5.0,-999.0,18,-99.99,,,-99.99,,2013-05-13 00:01:00,
2013-05-12 18:11:00,75.0,29.0,29.86,SW,225,5.0,-999.0,18,-99.99,,,-99.99,,2013-05-13 00:11:00,
2013-05-12 18:21:00,76.0,28.0,29.85,WNW,301,2.0,-999.0,17,-99.99,,,-99.99,,2013-05-13 00:21:00,
2013-05-12 18:32:00,77.0,27.0,29.85,WSW,248,8.0,-999.0,16,-99.99,,,-99.99,,2013-05-13 00:32:00,
2013-05-12 18:41:00,77.0,27.0,29.85,WSW,248,8.0,-999.0,16,-99.99,,,-99.99,,2013-05-13 00:41:00,
2013-05-12 18:51:00,76.0,28.0,29.84,West,269,6.0,-999.0,17,-99.99,,,-99.99,,2013-05-13 00:51:00,
2013-05-12 19:01:00,77.0,27.0,29.81,WSW,258,7.0,-999.0,16,-99.99,,,-99.99,,2013-05-13 01:01:00,
2013-05-12 19:11:00,77.0,27.0,29.81,WSW,258,7.0,-999.0,16,-99.99,,,-99.99,,2013-05-13 01:11:00,
2013-05-12 19:21:00,75.0,27.0,29.80,West,263,7.0,-999.0,17,-99.99,,,-99.99,,2013-05-13 01:21:00,
2013-05-12 19:31:00,75.0,27.0,29.81,WSW,239,10.0,-999.0,17,-99.99,,,-99.99,,2013-05-13 01:31:00,
2013-05-12 19:41:00,75.0,27.0,29.81,WSW,239,10.0,-999.0,17,-99.99,,,-99.99,,2013-05-13 01:41:00,
2013-05-12 19:52:00,76.0,28.0,29.80,WNW,291,8.0,-999.0,17,-99.99,,,-99.99,,2013-05-13 01:52:00,
2013-05-12 20:01:00,75.0,27.0,29.75,WSW,246,9.0,-999.0,17,-99.99,,,-99.99,,2013-05-13 02:01:00,
2013-05-12 20:11:00,75.0,27.0,29.75,WSW,246,9.0,-999.0,17,-99.99,,,-99.99,,2013-05-13 02:11:00,
2013-05-12 20:21:00,73.0,27.0,29.76,WSW,240,9.0,-999.0,18,-99.99,,,-99.99,,2013-05-13 02:21:00,
2013-05-12 20:31:00,72.0,27.0,29.77,WSW,252,6.0,-999.0,19,-99.99,,,-99.99,,2013-05-13 02:31:00,
2013-05-12 20:41:00,72.0,27.0,29.77,WSW,252,6.0,-999.0,19,-99.99,,,-99.99,,2013-05-13 02:41:00,
2013-05-12 20:51:00,71.0,28.0,29.78,WSW,258,4.0,-999.0,20,-99.99,,,-99.99,,2013-05-13 02:51:00,
2013-05-12 21:01:00,70.0,27.0,29.76,West,259,5.0,-999.0,20,-99.99,,,-99.99,,2013-05-13 03:01:00,
2013-05-12 21:11:00,70.0,27.0,29.76,West,259,5.0,-999.0,20,-99.99,,,-99.99,,2013-05-13 03:11:00,
2013-05-12 21:21:00,69.0,27.0,29.77,West,261,2.0,-999.0,21,-99.99,,,-99.99,,2013-05-13 03:21:00,
2013-05-12 21:32:00,67.0,27.0,29.78,West,261,0.0,-999.0,22,-99.99,,,-99.99,,2013-05-13 03:32:00,
2013-05-12 21:42:00,67.0,27.0,29.78,West,261,0.0,-999.0,22,-99.99,,,-99.99,,2013-05-13 03:42:00,
2013-05-12 21:52:00,67.0,27.0,29.79,WSW,248,2.0,-999.0,22,-99.99,,,-99.99,,2013-05-13 03:52:00,
2013-05-12 22:02:00,66.0,27.0,29.78,WSW,250,0.0,-999.0,23,-99.99,,,-99.99,,2013-05-13 04:02:00,
2013-05-12 22:12:00,66.0,27.0,29.78,WSW,250,0.0,-999.0,23,-99.99,,,-99.99,,2013-05-13 04:12:00,
2013-05-12 22:22:00,66.0,27.0,29.78,WSW,250,0.0,-999.0,23,-99.99,,,-99.99,,2013-05-13 04:22:00,
2013-05-12 22:32:00,63.0,27.0,29.80,West,259,2.0,-999.0,25,-99.99,,,-99.99,,2013-05-13 04:32:00,
2013-05-12 22:41:00,63.0,27.0,29.80,West,259,2.0,-999.0,25,-99.99,,,-99.99,,2013-05-13 04:41:00,
2013-05-12 22:52:00,63.0,27.0,29.81,WNW,296,1.0,-999.0,25,-99.99,,,-99.99,,2013-05-13 04:52:00,
2013-05-12 23:02:00,63.0,27.0,29.80,WNW,300,3.0,-999.0,25,-99.99,,,-99.99,,2013-05-13 05:02:00,
2013-05-12 23:11:00,63.0,27.0,29.80,WNW,300,3.0,-999.0,25,-99.99,,,-99.99,,2013-05-13 05:11:00,
2013-05-12 23:21:00,60.0,27.0,29.82,WNW,300,0.0,-999.0,28,-99.99,,,-99.99,,2013-05-13 05:21:00,
2013-05-12 23:32:00,58.0,28.0,29.84,WNW,300,0.0,-999.0,31,-99.99,,,-99.99,,2013-05-13 05:32:00,
2013-05-12 23:42:00,58.0,28.0,29.84,WNW,300,0.0,-999.0,31,-99.99,,,-99.99,,2013-05-13 05:42:00,
2013-05-12 23:51:00,57.0,27.0,29.85,WNW,300,0.0,-999.0,31,-99.99,,,-99.99,,2013-05-13 05:51:00,